Weather in Shiryaevo

Russia / Samara Oblast     53°24′52″N   50°01′08″E
temp.,
°C
wind,
m/s
gust,
m/s
humid.,
%
clouds,
%
prec.,
mm/h
press.,
hPa
HPBL,
m
28 february, sun
sun2801:00−13nw5119498 0.2 1001373
04:00−14nw6129399 0.3 1003397
07:00−17nw61295100 0.1 1005347
10:00−17nw61195100 0.1 1006348
13:00−14nw5994100 0.0 1008395
16:00−14nw5993100 0.1 1010444
19:00−15nw499499 0.1 1013401
22:00−15nw499496 0.2 1015368
1 march, mon
mon101:00−17nw369792 0.1 1016158
04:00−20nw359885 0.1 1018105
07:00−21nw349864 0.0 102078
10:00−18nw369452 0.0 1022264
13:00−15nw359173 0.0 1022336
16:00−14wnw369170 0.0 1022333
19:00−19w239620 0.0 102220
22:00−18sw229410 0.0 102220
2 march, tue
tue201:00−17ssw239738 0.0 101933
04:00−15ssw359664 0.0 1016124
07:00−13ssw41194100 0.0 1012322
10:00−9ssw61293100 0.6 1009433
13:00−4sw71392100 0.7 1005628
16:00−2sw71394100 1.6 1002685
19:00−2sw51195100 1.0 1000520
22:00−1wnw4997100 2.0 1000442
3 march, wed
wed301:00−5w489680 0.1 999195
04:00−4w489686 0.1 1000229
07:00−4wnw4996100 0.3 1001363
10:00−3nw5895100 0.9 1002481
13:00−1nw5795100 0.6 1003560
16:00−2nw5891100 0.8 1004677
19:00−3nw4994100 0.1 1005482
22:00−5nw5119597 0.1 1008432
4 march, thu
thu401:00−7nw5119392 0.1 1009356
04:00−9nw5119589 0.1 1011284
07:00−10wnw4109596 0.1 1013250
10:00−9w489393 0.1 1014295
13:00−5wsw588775 0.0 1014560
16:00−4sw6119082 0.0 1012627
19:00−4sw8158999 0.0 1010690
22:00−3sw8168799 0.1 1009725